Location: Bocchiglicro
(39.4167°N, 16.7500°E)
Time: 22:30:34
(UTC+00:00)

ZHEDA PIXING 1C - Visible Passes

Search period start: 23 November 2020 00:00
Search period end: 03 December 2020 00:00
Orbit: 609 x 644 km, 97.7° (Epoch: 23 November)

Date Brightness Start Highest point End Pass type
(mag) Time Alt. Az. Time Alt. Az. Time Alt. Az.
23 Nov ? 03:24:53 10° NNE 03:29:08 60° E 03:33:23 10° S visible
23 Nov ? 05:03:12 10° NW 05:04:53 12° WNW 05:06:33 10° W visible
23 Nov ? 15:57:10 10° SW 15:59:52 16° W 16:02:34 10° NW visible
24 Nov ? 03:44:08 10° N 03:48:26 81° WNW 03:52:44 10° SSW visible
25 Nov ? 02:29:00 10° ENE 02:31:10 14° E 02:33:20 10° ESE visible
25 Nov ? 04:03:32 10° N 04:07:41 48° WNW 04:11:49 10° SSW visible
26 Nov ? 02:47:15 10° NE 02:50:38 22° E 02:53:59 10° SSE visible
26 Nov ? 04:23:08 10° N 04:26:52 29° WNW 04:30:37 10° SW visible
27 Nov ? 03:06:02 10° NNE 03:10:01 36° E 03:14:00 10° SSE visible
27 Nov ? 04:42:59 10° NNW 04:46:00 19° WNW 04:49:02 10° WSW visible
28 Nov ? 03:25:05 10° NNE 03:29:22 61° E 03:33:38 10° S visible
28 Nov ? 05:03:27 10° NW 05:05:06 12° WNW 05:06:44 10° W visible
28 Nov ? 15:57:29 10° SW 16:00:06 16° W 16:02:43 10° NW visible
29 Nov ? 03:44:20 10° N 03:50:14 39° SSW 03:52:59 10° SSW visible
30 Nov ? 02:29:08 10° ENE 02:33:18 11° ESE 02:33:40 10° ESE visible
30 Nov ? 04:03:45 10° N 04:10:39 20° SW 04:12:03 10° SSW visible
01 Dec ? 02:47:24 10° NE 02:53:23 14° SE 02:54:16 10° SSE visible
01 Dec ? 04:23:20 10° N 04:30:43 11° SW 04:30:50 10° SW visible
02 Dec ? 03:06:13 10° NNE 03:13:20 15° SSE 03:14:16 10° SSE visible
02 Dec ? 04:43:12 10° NNW 04:50:41 - WSW 04:44:26 15° NW visible
